Theta_e
345 344 345 346 346 346 346 346 345 350 348 342 342 343 343 343 344 346 348 347 345 344 344 343 343 342 339 337 336 335 335 336 337 338 338 339 338 339
345 345 345 345 343 347 348 348 347 345 348 343 342 342 343 343 343 345 346 346 342 343 342 343 342 340 338 336 335 334 334 335 336 336 339 339 340 341
346 345 344 344 347 349 348 348 346 344 345 344 341 342 342 343 343 343 344 343 343 342 341 341 341 339 337 335 334 333 333 334 334 338 339 340 341 342
347 344 342 345 349 349 349 347 346 345 343 342 340 339 339 343 343 344 343 343 341 342 342 342 341 338 337 335 334 333 333 333 335 340 340 341 341 341
346 343 344 348 350 350 349 348 346 344 343 340 340 340 340 341 341 342 342 341 341 341 341 342 340 337 337 337 336 334 332 332 335 340 341 341 342 342
344 346 349 351 350 350 349 347 346 344 343 341 340 340 341 340 340 341 341 341 341 341 342 341 339 338 337 336 337 336 333 331 334 341 342 341 341 341
348 351 351 350 349 349 348 347 345 344 343 340 338 337 338 337 339 339 340 340 340 341 340 340 339 338 336 336 336 336 333 331 333 340 342 342 341 340
350 351 350 349 349 348 347 347 345 344 342 341 338 338 339 339 339 337 338 338 339 339 339 337 336 336 336 336 336 336 333 331 332 337 339 340 340 339
351 352 349 348 348 347 347 346 345 345 345 344 342 341 341 340 341 339 336 337 337 336 336 335 336 335 334 336 336 336 333 332 331 335 339 339 339 340
349 351 349 347 347 346 346 345 345 345 344 344 344 344 344 343 342 342 340 338 337 337 336 335 335 334 333 334 337 336 333 332 332 334 337 339 338 337
348 348 348 347 345 345 345 345 344 344 343 343 343 343 343 343 342 341 339 336 336 334 335 335 334 334 333 333 336 336 334 333 332 333 335 338 338 335
345 343 346 346 346 346 345 345 344 343 343 343 342 342 342 343 342 342 340 336 335 333 335 335 335 334 335 334 335 335 334 335 333 333 333 336 336 334
341 341 343 344 345 345 345 345 344 344 344 342 342 341 341 341 342 341 341 338 337 335 336 334 334 334 335 335 334 335 334 335 334 332 334 335 334 333
338 339 340 340 340 340 340 341 341 341 341 341 341 341 341 341 341 340 340 339 337 337 337 336 334 334 335 335 334 333 334 335 334 333 333 335 333 332
338 340 338 337 340 341 342 342 341 341 340 337 338 339 340 340 340 339 338 337 337 336 336 337 336 335 334 334 334 332 333 332 335 334 333 333 333 331
336 337 337 336 335 338 337 338 339 339 339 339 338 338 338 337 337 337 336 335 334 334 334 335 335 335 334 334 334 333 332 332 332 333 335 334 332 332
327 327 329 328 327 327 326 326 327 330 335 336 337 336 335 334 333 333 333 333 334 334 334 334 333 334 334 335 334 334 333 332 332 333 331 330 329 331
326 326 326 327 327 328 328 328 327 329 333 334 334 333 333 332 332 332 331 332 334 334 334 333 333 332 332 332 334 333 333 333 332 332 331 330 329 329
323 324 324 324 324 325 326 327 328 330 330 330 332 332 331 332 332 331 331 331 333 333 334 334 334 333 332 334 333 333 333 332 332 331 330 329 329 330
321 321 320 321 321 321 322 322 323 325 328 331 332 332 332 332 332 332 332 332 332 333 333 333 334 334 333 333 333 323 326 331 332 332 330 330 330 330
319 319 319 319 320 321 321 322 323 323 325 327 329 330 331 331 331 331 331 331 331 330 330 330 328 327 329 329 324 315 315 322 325 323 322 322 324 328
319 319 319 320 320 317 319 320 320 321 322 323 324 325 326 326 326 327 327 328 327 326 325 324 323 324 324 323 320 315 313 313 316 317 317 315 314 324
321 320 320 320 320 320 320 320 318 317 319 319 320 320 321 322 323 323 324 324 323 323 322 320 320 321 320 319 317 316 314 313 314 316 316 317 316 316
Wind_Speed
28 32 31 29 25 24 24 22 13 4 4 6 7 12 16 18 18 19 16 15 14 11 10 13 14 14 15 14 15 15 15 16 16 17 17 17 16 16
26 29 30 29 26 24 20 19 21 17 5 8 8 14 15 14 16 17 16 14 13 12 9 10 13 14 14 14 14 14 15 16 16 16 16 15 13 12
25 26 26 25 24 23 20 19 21 20 10 8 9 12 11 11 8 14 16 13 12 12 9 11 13 14 13 14 14 15 15 15 15 14 13 11 10 10
26 25 24 23 23 22 19 20 21 22 16 10 7 8 7 9 9 8 10 10 9 10 11 12 12 13 12 13 14 15 16 15 15 12 10 10 10 11
23 22 23 22 21 20 19 17 18 16 16 11 8 4 3 5 6 8 9 11 12 11 13 14 14 12 13 14 15 16 16 14 13 11 10 10 12 14
19 19 19 19 19 19 19 17 16 15 14 14 13 13 11 8 7 6 8 11 11 12 13 14 14 15 16 17 18 18 16 14 12 10 11 13 15 16
18 17 17 17 16 17 16 17 17 17 13 14 11 7 8 6 5 5 6 7 10 13 14 15 16 18 19 20 21 19 16 14 12 11 14 16 17 17
22 19 15 16 16 15 15 13 16 18 17 13 9 8 9 10 10 11 11 6 3 7 9 12 14 19 23 23 20 18 16 14 13 13 15 16 17 19
25 21 17 16 17 15 15 16 14 16 16 16 15 16 13 15 12 11 12 10 8 7 7 10 13 16 14 15 18 18 16 15 15 15 16 17 20 23
24 20 19 15 17 15 16 18 16 16 19 18 19 19 18 16 12 12 11 10 12 14 13 7 10 14 15 17 16 18 17 16 14 15 17 19 21 22
26 20 22 18 16 15 15 16 16 16 16 18 18 20 19 17 13 12 10 8 7 8 12 9 10 10 16 18 16 18 17 15 15 17 18 21 24 27
21 22 23 19 16 16 16 17 19 20 18 17 17 20 21 21 18 18 15 12 9 3 14 12 9 7 3 8 15 17 19 19 17 18 23 23 29 28
14 15 12 14 19 18 18 20 23 20 19 18 16 18 19 21 22 23 23 23 16 16 10 17 8 8 9 5 6 14 22 22 22 22 23 25 33 34
11 11 10 13 13 14 17 18 19 20 17 17 16 19 22 23 24 26 26 27 26 26 17 20 11 14 11 6 8 12 18 25 24 24 23 24 30 36
11 12 12 11 16 17 16 15 14 13 11 13 15 21 24 24 21 20 21 25 28 30 30 27 25 23 22 17 9 14 15 21 27 28 27 28 30 38
7 9 11 13 16 16 15 14 16 18 17 15 19 19 17 16 15 14 17 19 20 23 28 31 32 29 25 28 21 18 19 13 17 29 33 35 36 39
2 4 3 7 10 12 16 16 17 16 17 21 19 19 19 18 16 15 17 17 17 16 20 23 27 30 34 28 22 24 21 23 26 25 26 30 35 44
3 3 3 2 4 7 9 9 10 11 14 17 16 15 16 15 16 15 17 20 18 19 21 23 22 22 24 30 37 24 24 25 25 28 27 25 28 37
5 7 9 9 8 8 8 9 10 12 12 17 15 16 19 18 16 15 15 17 18 19 21 23 24 25 11 11 13 35 31 26 23 25 29 27 26 31
6 6 7 8 8 9 11 12 14 12 11 9 11 15 18 18 16 15 16 16 15 16 16 20 22 24 22 14 12 9 24 27 21 22 23 29 35 37
5 5 6 7 8 9 9 9 11 11 11 10 11 11 12 12 15 14 16 16 16 15 11 7 3 1 4 5 6 7 12 4 4 6 10 14 16 19
6 7 6 7 8 8 7 6 7 7 8 7 6 5 6 6 9 12 12 12 13 10 5 2 1 2 4 4 6 13 14 17 17 16 12 6 3 4
4 4 6 7 8 8 9 9 9 10 10 10 9 10 9 8 6 5 6 6 7 4 7 6 6 6 6 12 15 14 16 15 18 23 26 22 20 22
Wind_Direction
238 241 244 249 250 253 249 248 223 257 268 267 268 283 288 274 267 261 242 230 234 245 266 266 264 267 270 271 273 277 280 283 284 283 282 277 266 260
244 243 246 246 251 252 248 247 240 225 248 265 269 287 281 277 268 257 247 233 237 247 247 264 266 269 269 273 275 278 281 284 285 285 281 272 258 251
238 238 246 245 246 247 246 243 238 227 243 264 267 287 282 286 280 249 248 248 230 222 232 248 260 268 275 274 276 279 283 286 289 284 275 257 244 220
236 243 243 247 247 247 239 234 239 242 234 248 265 264 269 253 261 239 243 247 250 245 244 238 252 264 276 277 281 284 285 285 287 278 254 234 216 203
235 240 244 244 244 245 242 243 241 243 239 233 241 233 278 268 263 247 245 257 266 260 259 244 249 263 279 282 283 283 282 281 282 264 234 209 191 187
232 240 245 248 251 248 245 237 236 234 231 234 242 251 255 254 262 240 235 240 245 240 239 250 251 263 272 279 283 280 274 271 272 246 219 201 199 192
225 231 245 250 252 250 241 243 233 220 215 229 235 234 235 234 230 236 230 238 249 241 247 253 264 267 274 278 283 280 272 268 260 241 226 215 207 198
224 224 238 249 250 244 239 232 244 228 221 211 227 228 231 239 254 250 246 212 238 247 243 265 273 275 269 263 268 273 270 264 259 240 232 227 224 206
248 228 221 234 243 241 241 238 228 241 237 240 235 244 244 256 257 247 238 231 225 221 249 278 280 276 289 271 254 258 258 258 252 232 234 237 219 202
244 236 235 225 232 237 240 239 231 232 238 238 243 254 258 267 262 261 263 249 255 251 243 238 256 265 284 274 255 247 253 252 247 231 229 226 214 209
238 236 239 222 224 229 231 241 243 236 239 244 250 261 264 262 253 249 231 212 242 243 247 239 246 259 276 274 265 239 234 239 235 224 229 227 225 212
234 236 245 239 227 233 227 233 239 245 245 244 246 251 250 248 249 245 245 219 222 269 248 214 242 228 263 256 254 238 229 224 229 224 216 218 215 206
223 219 234 248 237 226 237 239 244 254 253 255 256 255 252 249 246 245 245 239 216 230 243 204 219 214 224 231 248 238 230 228 227 220 217 218 214 210
221 247 238 235 238 233 230 238 246 252 255 253 250 249 255 254 254 253 251 249 246 249 253 243 236 217 218 239 242 242 238 235 231 229 223 225 216 217
208 225 257 299 254 231 220 224 227 232 239 247 246 254 262 267 271 268 263 256 254 251 249 243 238 241 232 232 232 235 233 234 231 234 231 225 222 217
214 204 215 228 251 259 252 248 249 247 246 246 261 267 270 269 263 261 262 256 246 257 262 254 247 239 235 237 237 233 227 222 236 233 236 238 232 231
299 267 225 277 276 279 282 279 269 263 257 256 250 256 261 263 261 262 266 255 240 250 258 261 257 247 240 238 230 235 232 229 237 236 227 227 230 233
57 36 38 19 340 331 321 310 289 272 261 250 241 249 262 261 255 258 254 254 244 248 250 249 248 236 233 241 236 232 231 232 232 242 236 222 229 233
39 32 24 28 24 8 351 346 341 311 289 264 274 269 267 254 252 252 248 249 248 255 256 258 245 229 226 234 229 232 233 234 232 221 228 221 236 242
46 38 27 12 6 4 353 340 327 322 312 297 272 271 260 256 253 250 253 249 258 261 262 267 245 235 235 235 228 192 222 226 228 226 226 232 247 257
42 31 23 24 19 10 5 354 338 324 314 301 293 283 282 276 265 266 274 275 275 278 277 281 272 251 128 113 89 54 49 45 255 286 296 283 256 251
73 73 67 62 54 42 37 30 27 22 12 9 354 335 311 291 287 290 283 275 272 274 281 221 325 17 61 79 97 121 104 86 98 93 83 65 304 314
68 52 47 43 38 44 40 41 51 45 40 33 27 10 2 346 336 308 293 282 263 216 165 129 97 102 103 121 120 114 116 112 99 90 73 71 71 59